Regional Weather Roundup
Issued by NWS Kansas City/Pleasant Hill, MO

Home | Current Version | Previous Version | Text Only | Print | Product List | Glossary On
Versions: 1 2 3 4 5 6 7 8 9 10 11 12 13 14 15 16 17 18 19 20 21 22 23 24 25 26 27 28 29 30 31 32 33 34 35 36 37 38 39 40 41 42 43 44 45 46 47 48 49 50
000
ASUS43 KEAX 041510
RWREAX

WEATHER ROUNDUP FOR EASTERN KANSAS AND NORTHWEST MISSOURI
NATIONAL WEATHER SERVICE KANSAS CITY/PLEASANT HILL MO
1000 AM CDT FRI SEP 04 2015

KSZ040-057-103>105-MOZ028-029-037-043-041600-
...KANSAS CITY METROPOLITAN AREA...

CITY           SKY/WX    TMP DP  RH WIND       PRES   REMARKS
K.C. INTL      MOSUNNY   82  70  66 S10       29.99S
K.C. DOWNTOWN  MOSUNNY   84  70  62 S7        29.98S
LEES SUMMIT    PTSUNNY   79  69  71 S7        30.01S
OLATHE - IXD   MOSUNNY   79  69  71 S9        30.01R
OLATHE - OJC   MOSUNNY   77  70  79 S7        30.00S
LAWRENCE       SUNNY     82  69  64 S6        29.98S

$$

MOZ001>008-011>017-020>025-030>033-038>040-044>046-053-054-041600-
...NORTHERN AND CENTRAL MISSOURI...

CITY           SKY/WX    TMP DP  RH WIND       PRES   REMARKS
ST. JOSEPH     SUNNY     81  70  69 S10       29.98S
MOSBY          SUNNY     79  68  69 S3        30.00R
WARRENSBURG    MOSUNNY   81  68  65 SW8       30.02R
WHITEMAN AFB   MOSUNNY   84  69  59 SW12      30.01R
CLINTON          N/A     81  70  69 CALM      30.03R
SEDALIA        SUNNY     84  69  60 SW8       30.04R
WARSAW         NOT AVBL
CHILLICOTHE      N/A     83  71  67 S6        30.01R
KIRKSVILLE     SUNNY     82  70  66 S7        30.03S

$$

MOZ041-047>049-056>058-063>065-088>090-097-041600-
...EASTERN AND SOUTHERN MISSOURI...

CITY           SKY/WX    TMP DP  RH WIND       PRES   REMARKS
ST. LOUIS INTL PTSUNNY   88  70  55 W6        30.05R HX  93
SPIRIT OF STL  SUNNY     84  72  67 SW3       30.03R
COLUMBIA       PTSUNNY   80  72  76 S5        30.04R
JEFFERSON CITY PTSUNNY   79  69  71 SE3       30.02S
ROLLA          MOSUNNY   81  68  64 SW8       30.05R
OSAGE BEACH    MOSUNNY   82  70  65 S5        30.05R
SPRINGFIELD    PTSUNNY   79  68  69 S8        30.06R
BRANSON        MOSUNNY   82  68  61 CALM      30.07R
JOPLIN         MOSUNNY   81  70  69 S9        30.03R
WEST PLAINS    SUNNY     82  68  62 S8        30.09R

$$

IAZ060-094-KSZ022-034>040-054-083-096-NEZ052-066-093-041600-
...KANSAS...SOUTHEAST NEBRASKA AND IOWA...

CITY           SKY/WX    TMP DP  RH WIND       PRES   REMARKS
TOPEKA         SUNNY     83  69  62 S7        29.98R
MANHATTAN      SUNNY     84  66  54 S12       29.95R
EMPORIA        SUNNY     79  68  69 S13       29.99R
CHANUTE        SUNNY     81  69  67 S13       30.01R
WICHITA        MOSUNNY   82  66  58 S16       29.96S
OMAHA          CLOUDY    78  69  73 S15       29.93S
LINCOLN        LGT RAIN  72  69  90 S10       29.90F
FALLS CITY     MOSUNNY   81  70  69 S8        29.96R
LAMONI         SUNNY     81  71  71 SW8       30.00S
DES MOINES     MOSUNNY   82  70  66 S8        29.97S

$$




USA.gov is the U.S. government's official web portal to all federal, state and local government web resources and services.